星链-32039 (STARLINK-32039)

导读

STARLINK-32039是美国SpaceX公司星链(Starlink)星座中的一颗卫星,于2024年8月20日发射升空。它属于星链第二代卫星组网项目,运行在近地轨道,采用相控阵天线、星间链路等先进技术,能够为全球偏远、网络基础设施欠发达地区提供低时延、高速的宽带卫星互联网接入服务,是SpaceX构建全球覆盖卫星互联网计划的组成部分,进一步扩充了星链星座的规模。

Basic Information
目录编号:
60604
目录名称:
STARLINK-32039
国际标识:
2024-150X
轨道中心:
EARTH
卫星名称:
星链-32039 (STARLINK-32039)
卫星全名:
星链-32039 (STARLINK-32039)
卫星状态:
在轨 (已飞行745 天)
发射日期:
2024-08-20 UTC
国别 :
美国 (US)
星等 :
--
Orbit Information
数据来源 国际轨道数据 AOE轨道数据
星历时间 2026-09-03T14:16:54+0800
22小时前
查看轨道信息
2026-09-03T12:00:00+0800
1天前
查看轨道信息
半长轴 6840.872km 6840.88km
偏心率 0.0001491 0.0001223
轨道倾角 53.160° 53.159°
近地点辐角 87.373° 74.195°
升交点赤经 203.986° 204.432°
平近点角 272.744° 120.475°
近地点 461.715km 461.906km
远地点 463.755km 463.58km
周期 93.848分钟 93.849分钟
每日圈数 15.343895 15.343867
Detailed Information
卫星平台:
Starlink v2.0 mini
运营商:
太空探索技术公司
运营商所在国:
美国
制造商(研发单位):
太空探索技术公司
制造商所在国:
美国
使用方式:
暂无
Satellite Introduction
星链(Starlink)计划是由太空探索技术公司(SpaceX)提出的一个巨型低轨卫星互联网星座项目,计划在2019年至2024年间在太空搭建由约1.2万颗卫星组成的“星链”网络,其中1584颗将部署在地球上空550千米处的近地轨道,并从2020年开始工作。该卫星仍在工作。
2D Orbit Map
3D Orbit Map
Orbit Altitude Analysis Chart
Orbit Inclination Analysis Chart
Orbit Comprehensive Analysis Chart
View Comprehensive Chart